This is the latest recevied weather packets stored in our database for station/object W8BS. If no packets are shown the sender has not sent any weather packets the latest 10 day(s).
| Time | Temp. | Humidity | Pressure | Rain* | Wind** | Luminosity | Snow |
|---|---|---|---|---|---|---|---|
| 1778163064 | 7.78° C | 99% | 1012.7 hPa | 0 mm | - | 264 W/m² | - |
| 1778162760 | 7.78° C | 99% | 1012.9 hPa | 0 mm | - | 256 W/m² | - |
| 1778162457 | 7.78° C | 99% | 1012.9 hPa | 0 mm | - | 252 W/m² | - |
| 1778162154 | 7.78° C | 99% | 1012.8 hPa | 0 mm | - | 212 W/m² | - |
| 1778161852 | 7.22° C | 99% | 1012.9 hPa | 0 mm | - | 209 W/m² | - |
| 1778161548 | 7.78° C | 99% | 1013.1 hPa | 0 mm | - | 230 W/m² | - |
| 1778161244 | 7.22° C | 99% | 1013 hPa | 0 mm | - | 180 W/m² | - |
| 1778160940 | 7.78° C | 99% | 1012.9 hPa | 0 mm | - | 231 W/m² | - |
| 1778160638 | 7.78° C | 99% | 1013.1 hPa | 0 mm | - | 200 W/m² | - |
| 1778160335 | 7.22° C | 99% | 1013.2 hPa | 0 mm | - | 145 W/m² | - |
| 1778160031 | 7.22° C | 99% | 1013.1 hPa | 0 mm | - | 161 W/m² | - |
| 1778159728 | 7.22° C | 99% | 1013 hPa | 0 mm | - | 180 W/m² | - |
| 1778159425 | 7.22° C | 99% | 1013.1 hPa | 0 mm | - | 182 W/m² | - |
| 1778159122 | 7.78° C | 99% | 1013 hPa | 0 mm | - | 158 W/m² | - |
| 1778158820 | 7.22° C | 99% | 1013 hPa | 0 mm | - | 143 W/m² | - |
| 1778158518 | 7.22° C | 99% | 1013.2 hPa | 0 mm | - | 110 W/m² | - |
| 1778158215 | 7.22° C | 99% | 1013.1 hPa | 0 mm | - | 104 W/m² | - |
| 1778157912 | 6.67° C | 99% | 1013.1 hPa | 0 mm | - | 106 W/m² | - |
| 1778157610 | 7.22° C | 99% | 1013.1 hPa | 0 mm | - | 78 W/m² | - |
| 1778157308 | 6.67° C | 99% | 1013.3 hPa | 0 mm | - | 72 W/m² | - |
| 1778157004 | 6.67° C | 99% | 1013.4 hPa | 0 mm | - | 65 W/m² | - |
| 1778156699 | 6.67° C | 99% | 1013 hPa | 0 mm | - | 48 W/m² | - |
| 1778156395 | 6.67° C | 99% | 1013.3 hPa | 0 mm | - | 42 W/m² | - |
| 1778156091 | 6.67° C | 99% | 1013.4 hPa | 0 mm | - | 35 W/m² | - |
| 1778155787 | 6.67° C | 99% | 1013.3 hPa | 0 mm | - | 48 W/m² | - |
* Rain latest hour (hover to see other rain measurements)
** Current wind speed in m/s (hover to see current wind gust speed)